When you browse on this site, cookies collect data to enhance your experience and personalize the content and advertising you see.
Visit our Privacy Policy to learn more. By continuing to use the site, you agree to this use of cookies and data.
  • en Suisse
  • Liste des pays
  • À 7 jours
  • Température de l'eau
  • Carte météo
  • Widgets météo
  • user-avatar
    Se connecter

    Météo par heure à Kipungo

    Ce jour, 21 Novembre, Jeudi

    Heure Température Précipitation Vent Pression Humidité
    00:00 +20°C° 0 mm 2 m/s 652 mmHg 38%
    01:00 +21°C° 0 mm 1 m/s 652 mmHg 42%
    02:00 +20°C° 0 mm 1 m/s 652 mmHg 43%
    03:00 +20°C° 0 mm 1 m/s 651 mmHg 44%
    04:00 +17°C° 0 mm 0 m/s 651 mmHg 45%
    05:00 +18°C° 0 mm 0 m/s 652 mmHg 42%
    06:00 +20°C° 0 mm 0 m/s 653 mmHg 39%
    07:00 +21°C° 0 mm 0 m/s 653 mmHg 36%
    08:00 +24°C° 0 mm 0 m/s 654 mmHg 31%
    09:00 +28°C° 0 mm 0 m/s 655 mmHg 26%
    10:00 +31°C° 0 mm 0 m/s 656 mmHg 21%
    11:00 +33°C° 0 mm 0 m/s 656 mmHg 20%
    12:00 +34°C° 0 mm 0 m/s 655 mmHg 19%
    13:00 +35°C° 0 mm 0 m/s 655 mmHg 18%
    14:00 +36°C° 0 mm 1 m/s 654 mmHg 19%
    15:00 +35°C° 0 mm 1 m/s 653 mmHg 20%
    16:00 +34°C° 0 mm 1 m/s 653 mmHg 21%
    17:00 +32°C° 0 mm 2 m/s 653 mmHg 25%
    18:00 +29°C° 0 mm 2 m/s 653 mmHg 29%
    19:00 +27°C° 0 mm 3 m/s 653 mmHg 34%
    20:00 +26°C° 0 mm 3 m/s 653 mmHg 36%
    21:00 +24°C° 0 mm 3 m/s 653 mmHg 38%
    22:00 +22°C° 0 mm 3 m/s 653 mmHg 41%
    23:00 +22°C° 0 mm 3 m/s 653 mmHg 44%

    Demain, 22 Novembre, Vendredi

    Heure Température Précipitation Vent Pression Humidité
    00:00 +21°C° 0 mm 2 m/s 652 mmHg 47%
    01:00 +20°C° 0 mm 2 m/s 652 mmHg 51%
    02:00 +20°C° 0 mm 2 m/s 652 mmHg 54%
    03:00 +20°C° 0 mm 1 m/s 652 mmHg 58%
    04:00 +19°C° 0 mm 1 m/s 652 mmHg 61%
    05:00 +20°C° 0 mm 1 m/s 652 mmHg 60%
    06:00 +21°C° 0 mm 1 m/s 653 mmHg 58%
    07:00 +22°C° 0 mm 1 m/s 654 mmHg 56%
    08:00 +24°C° 0 mm 0 m/s 655 mmHg 46%
    09:00 +27°C° 0 mm 0 m/s 656 mmHg 37%
    10:00 +31°C° 0 mm 0 m/s 656 mmHg 28%
    11:00 +32°C° 0 mm 0 m/s 656 mmHg 25%
    12:00 +34°C° 0 mm 0 m/s 656 mmHg 23%
    13:00 +35°C° 0 mm 0 m/s 655 mmHg 20%
    14:00 +34°C° 0 mm 0 m/s 655 mmHg 20%
    15:00 +35°C° 0 mm 1 m/s 654 mmHg 20%
    16:00 +34°C° 0 mm 1 m/s 653 mmHg 20%
    17:00 +32°C° 0 mm 1 m/s 653 mmHg 24%
    18:00 +29°C° 0 mm 2 m/s 653 mmHg 28%
    19:00 +27°C° 0 mm 2 m/s 652 mmHg 32%
    20:00 +26°C° 0 mm 2 m/s 653 mmHg 34%
    21:00 +24°C° 0 mm 3 m/s 653 mmHg 36%
    22:00 +22°C° 0 mm 3 m/s 653 mmHg 38%
    23:00 +21°C° 0 mm 2 m/s 653 mmHg 41%

    Après-demain, 23 Novembre, Samedi

    Heure Température Précipitation Vent Pression Humidité
    00:00 +21°C° 0 mm 2 m/s 652 mmHg 45%
    01:00 +20°C° 0 mm 2 m/s 652 mmHg 48%
    02:00 +19°C° 0 mm 2 m/s 652 mmHg 50%
    03:00 +20°C° 0 mm 1 m/s 652 mmHg 52%
    04:00 +17°C° 0 mm 0 m/s 652 mmHg 54%
    05:00 +19°C° 0 mm 0 m/s 653 mmHg 50%
    06:00 +20°C° 0 mm 0 m/s 653 mmHg 46%
    07:00 +23°C° 0 mm 1 m/s 654 mmHg 42%
    08:00 +26°C° 0 mm 1 m/s 655 mmHg 35%
    09:00 +29°C° 0 mm 2 m/s 655 mmHg 28%
    10:00 +32°C° 0 mm 2 m/s 655 mmHg 21%
    11:00 +34°C° 0 mm 2 m/s 655 mmHg 19%
    12:00 +35°C° 0 mm 2 m/s 655 mmHg 17%
    13:00 +37°C° 0 mm 3 m/s 654 mmHg 15%
    14:00 +37°C° 0 mm 3 m/s 654 mmHg 16%
    15:00 +37°C° 0 mm 2 m/s 653 mmHg 16%
    16:00 +36°C° 0 mm 2 m/s 652 mmHg 16%
    17:00 +34°C° 0 mm 3 m/s 652 mmHg 21%
    18:00 +30°C° 0 mm 3 m/s 652 mmHg 26%
    19:00 +28°C° 0 mm 3 m/s 652 mmHg 30%
    20:00 +26°C° 0 mm 3 m/s 652 mmHg 38%
    21:00 +24°C° 0 mm 3 m/s 652 mmHg 47%
    22:00 +21°C° 0 mm 3 m/s 653 mmHg 55%
    23:00 +20°C° 0 mm 3 m/s 652 mmHg 59%

    24 Novembre, Dimanche

    Heure Température Précipitation Vent Pression Humidité
    00:00 +20°C° 0 mm 2 m/s 652 mmHg 63%
    01:00 +19°C° 0 mm 2 m/s 652 mmHg 67%
    02:00 +19°C° 0 mm 1 m/s 652 mmHg 68%
    03:00 +19°C° 0 mm 1 m/s 652 mmHg 69%
    04:00 +18°C° 0 mm 1 m/s 651 mmHg 70%
    05:00 +20°C° 0 mm 1 m/s 652 mmHg 63%
    06:00 +21°C° 0 mm 1 m/s 653 mmHg 55%
    07:00 +23°C° 0 mm 1 m/s 653 mmHg 48%
    08:00 +26°C° 0 mm 2 m/s 653 mmHg 39%
    09:00 +29°C° 0 mm 2 m/s 654 mmHg 29%
    10:00 +33°C° 0 mm 3 m/s 654 mmHg 20%
    11:00 +34°C° 0 mm 3 m/s 654 mmHg 20%
    12:00 +36°C° 0 mm 3 m/s 654 mmHg 19%
    13:00 +37°C° 0 mm 3 m/s 653 mmHg 19%
    14:00 +37°C° 0 mm 2 m/s 653 mmHg 19%
    15:00 +37°C° 0 mm 2 m/s 652 mmHg 20%
    16:00 +37°C° 0 mm 2 m/s 652 mmHg 21%
    17:00 +34°C° 0 mm 2 m/s 652 mmHg 24%
    18:00 +31°C° 0 mm 3 m/s 652 mmHg 28%
    19:00 +29°C° 0 mm 3 m/s 652 mmHg 32%
    20:00 +27°C° 0 mm 3 m/s 652 mmHg 38%
    21:00 +26°C° 0 mm 2 m/s 653 mmHg 43%
    22:00 +24°C° 0 mm 2 m/s 653 mmHg 49%
    23:00 +24°C° 0.1 mm 2 m/s 653 mmHg 52%

    25 Novembre, Lundi

    Heure Température Précipitation Vent Pression Humidité
    00:00 +23°C° 0.1 mm 1 m/s 653 mmHg 56%
    01:00 +22°C° 0.1 mm 1 m/s 653 mmHg 59%
    02:00 +22°C° 0.2 mm 1 m/s 652 mmHg 63%
    03:00 +22°C° 0.2 mm 1 m/s 652 mmHg 66%
    04:00 +21°C° 0.2 mm 1 m/s 652 mmHg 69%
    05:00 +22°C° 0 mm 1 m/s 652 mmHg 67%
    06:00 +22°C° 0 mm 1 m/s 652 mmHg 65%
    07:00 +23°C° 0 mm 1 m/s 653 mmHg 63%
    08:00 +26°C° 0 mm 1 m/s 654 mmHg 53%
    09:00 +30°C° 0 mm 1 m/s 654 mmHg 44%
    10:00 +33°C° 0 mm 1 m/s 655 mmHg 35%
    11:00 +34°C° 0 mm 1 m/s 655 mmHg 33%
    12:00 +36°C° 0 mm 2 m/s 654 mmHg 30%
    13:00 +36°C° 0 mm 3 m/s 653 mmHg 28%
    14:00 +35°C° 0 mm 3 m/s 652 mmHg 31%
    15:00 +34°C° 0 mm 2 m/s 652 mmHg 34%
    16:00 +32°C° 0 mm 2 m/s 651 mmHg 36%
    17:00 +29°C° 0.8 mm 2 m/s 651 mmHg 50%
    18:00 +26°C° 0.8 mm 2 m/s 651 mmHg 63%
    19:00 +23°C° 0.8 mm 2 m/s 651 mmHg 76%
    20:00 +21°C° 1.4 mm 2 m/s 652 mmHg 80%
    21:00 +20°C° 1.4 mm 3 m/s 652 mmHg 83%
    22:00 +20°C° 1.4 mm 3 m/s 653 mmHg 87%
    23:00 +20°C° 0 mm 2 m/s 652 mmHg 87%

    26 Novembre, Mardi

    Heure Température Précipitation Vent Pression Humidité
    00:00 +19°C° 0 mm 2 m/s 652 mmHg 88%
    01:00 +20°C° 0 mm 1 m/s 652 mmHg 88%
    02:00 +20°C° 0.2 mm 1 m/s 651 mmHg 89%
    03:00 +20°C° 0.2 mm 1 m/s 651 mmHg 89%
    04:00 +18°C° 0.2 mm 0 m/s 651 mmHg 89%
    05:00 +18°C° 0.1 mm 0 m/s 652 mmHg 87%
    06:00 +19°C° 0.1 mm 0 m/s 652 mmHg 84%
    07:00 +20°C° 0.1 mm 0 m/s 653 mmHg 82%
    08:00 +22°C° 0 mm 0 m/s 653 mmHg 72%
    09:00 +27°C° 0 mm 1 m/s 654 mmHg 61%
    10:00 +29°C° 0 mm 2 m/s 655 mmHg 51%
    11:00 +30°C° 0.4 mm 2 m/s 654 mmHg 49%
    12:00 +30°C° 0.4 mm 3 m/s 654 mmHg 47%
    13:00 +30°C° 0.4 mm 3 m/s 653 mmHg 46%
    14:00 +29°C° 0.1 mm 3 m/s 652 mmHg 50%
    15:00 +28°C° 0.1 mm 3 m/s 652 mmHg 55%
    16:00 +27°C° 0.1 mm 3 m/s 651 mmHg 59%
    17:00 +26°C° 0.2 mm 3 m/s 651 mmHg 65%
    18:00 +25°C° 0.2 mm 2 m/s 651 mmHg 71%
    19:00 +23°C° 0.2 mm 1 m/s 651 mmHg 77%
    20:00 +23°C° 0.1 mm 1 m/s 652 mmHg 79%
    21:00 +22°C° 0.1 mm 1 m/s 652 mmHg 81%
    22:00 +21°C° 0.1 mm 2 m/s 653 mmHg 83%
    23:00 +21°C° 0.1 mm 1 m/s 652 mmHg 85%
    Voir plus